Location: LDNL
(36.4545°S, 141.6685°E)
Time: 20:48:39
(UTC+10:00)

Envisat - Visible Passes

Search period start: 31 May 2020 00:00
Search period end: 10 June 2020 00:00
Orbit: 764 x 766 km, 98.1° (Epoch: 30 May)

Date Brightness Start Highest point End Pass type
(mag) Time Alt. Az. Time Alt. Az. Time Alt. Az.
31 May 5.8 04:42:38 10° E 04:44:46 13° ESE 04:46:53 10° SE visible
31 May 2.9 06:18:01 10° N 06:23:06 73° WNW 06:28:15 10° SSW visible
31 May 3.2 18:29:38 10° SSE 18:34:37 48° E 18:39:32 10° N visible
31 May 5.5 20:09:46 10° SSW 20:13:13 18° WSW 20:16:38 10° WNW visible
01 Jun 3.9 05:41:30 10° NE 05:46:24 49° ESE 05:51:21 10° S visible
01 Jun 4.3 17:53:48 10° SE 17:57:38 21° E 18:01:25 10° NE visible
01 Jun 4.2 19:31:58 10° S 19:36:46 40° WSW 19:41:29 10° NW visible
02 Jun 5.2 05:06:02 10° ENE 05:09:54 22° ESE 05:13:47 10° SSE visible
02 Jun 3.5 06:43:52 10° NNW 06:48:37 39° W 06:53:26 10° SSW visible
02 Jun 2.9 18:54:56 10° SSE 19:00:06 88° E 19:05:13 10° NNW visible
02 Jun 6.0 20:37:49 10° SW 20:38:18 10° WSW 20:38:47 10° WSW visible
03 Jun 3.0 06:06:40 10° NNE 06:11:46 88° ESE 06:16:57 10° SSW visible
03 Jun 3.5 18:18:29 10° SSE 18:23:15 37° E 18:27:58 10° NNE visible
03 Jun 5.2 19:58:01 10° SSW 20:02:00 23° WSW 20:05:57 10° WNW visible
04 Jun 4.3 05:30:26 10° NE 05:35:08 38° ESE 05:39:52 10° S visible
04 Jun 3.8 19:20:30 10° S 19:25:29 51° WSW 19:30:25 10° NNW visible
05 Jun 5.5 04:55:23 10° ENE 04:58:41 18° ESE 05:02:01 10° SSE visible
05 Jun 3.2 06:32:18 10° N 06:37:15 51° W 06:42:16 10° SSW visible
05 Jun 2.9 18:43:38 10° SSE 18:48:46 69° ENE 18:53:51 10° N visible
05 Jun 5.8 20:24:48 10° SW 20:27:09 13° WSW 20:29:29 10° W visible
06 Jun 3.3 05:55:24 10° NNE 06:00:28 69° ESE 06:05:36 10° S visible
06 Jun 3.9 18:07:24 10° SE 18:11:52 29° E 18:16:16 10° NNE visible
06 Jun 4.8 19:46:23 10° S 19:50:47 29° WSW 19:55:07 10° NW visible
07 Jun 4.7 05:19:28 10° NE 05:23:53 30° ESE 05:28:20 10° S visible
07 Jun 3.9 06:58:29 10° NNW 07:02:49 28° W 07:07:12 10° SW visible
07 Jun 3.3 19:09:05 10° S 19:14:12 66° WSW 19:19:15 10° NNW visible
08 Jun 5.8 04:44:58 10° E 04:47:30 14° ESE 04:50:02 10° SSE visible
08 Jun 3.0 06:20:50 10° N 06:25:54 66° W 06:31:02 10° SSW visible
08 Jun 3.1 18:32:23 10° SSE 18:37:26 53° E 18:42:23 10° N visible
08 Jun 5.6 20:12:46 10° SSW 20:15:57 17° WSW 20:19:08 10° WNW visible
09 Jun 3.7 05:44:13 10° NNE 05:49:10 54° ESE 05:54:12 10° S visible
09 Jun 4.2 17:56:26 10° SE 18:00:27 23° E 18:04:27 10° NE visible
09 Jun 4.4 19:34:50 10° S 19:39:32 37° WSW 19:44:10 10° NW visible
